GW2092 Weather Reports


Display with metric or nautical units.
time (UTC)temp
F
wind
direction
speed
MPH
gust
MPH
rain 1hr
in
rain 24hr
in
rain mn
in
humidity
%
barometer
mb
20260510094537 60 0 0.0 1.0 0.00 0.00 0.00 80 1015.0
20260510093037 61 0 0.0 1.0 0.00 0.00 0.00 77 1014.9
20260510091542 60 0 0.0 0.0 0.00 0.00 0.00 78 1014.3
20260510090045 60 0 0.0 0.0 0.00 0.00 0.00 77 1014.2
20260510084539 61 0 0.0 1.0 0.00 0.01 0.00 77 1013.8
20260510083052 60 0 0.0 2.0 0.00 0.01 0.00 79 1013.9
20260510081538 59 0 0.0 1.0 0.00 0.01 0.00 84 1014.0
20260510080036 59 0 0.0 0.0 0.00 0.01 0.00 85 1013.2
20260510074543 59 0 0.0 0.0 0.00 0.01 0.00 83 1012.9
20260510073040 60 0 0.0 1.0 0.00 0.01 0.00 83 1013.0
20260510071540 60 61 0.0 1.0 0.00 0.01 0.00 84 1013.2
20260510070039 60 0 0.0 0.0 0.00 0.01 0.00 85 1012.9
20260510064544 60 0 0.0 0.0 0.00 0.01 0.00 85 1013.1
20260510063045 60 0 0.0 0.0 0.00 0.01 0.00 86 1013.6
20260510061543 60 0 0.0 0.0 0.00 0.01 0.00 85 1013.8
20260510060042 60 0 0.0 0.0 0.00 0.01 0.00 85 1013.9
20260510054538 59 0 0.0 0.0 0.00 0.01 0.00 85 1014.0
20260510053046 59 0 0.0 0.0 0.00 0.01 0.00 85 1014.1
20260510051547 59 0 0.0 0.0 0.00 0.01 0.00 83 1014.1
20260510050044 59 0 0.0 0.0 0.00 0.01 0.00 82 1014.0
20260510044549 60 0 0.0 1.0 0.00 0.01 0.01 80 1013.8
20260510043040 60 0 0.0 0.0 0.00 0.01 0.01 76 1013.6
20260510041546 60 0 0.0 0.0 0.00 0.01 0.01 76 1013.5
20260510040048 60 0 0.0 0.0 0.00 0.01 0.01 78 1013.7
20260510034548 60 0 0.0 0.0 0.00 0.01 0.01 76 1013.5
20260510033053 60 0 0.0 0.0 0.00 0.01 0.01 77 1013.1
20260510031544 61 0 0.0 0.0 0.00 0.01 0.01 73 1012.9
20260510030043 61 0 0.0 0.0 0.00 0.01 0.01 73 1012.8
20260510024541 62 0 0.0 0.0 0.00 0.01 0.01 73 1012.7
20260510023045 63 0 0.0 0.0 0.00 0.01 0.01 70 1012.4
20260510021546 63 0 0.0 0.0 0.00 0.01 0.01 70 1011.9
20260510020045 64 0 0.0 0.0 0.00 0.01 0.01 71 1011.7
20260510014543 65 0 0.0 0.0 0.00 0.01 0.01 69 1011.3
20260510013049 67 0 0.0 0.0 0.00 0.01 0.01 66 1011.0
20260510011545 68 0 0.0 0.0 0.00 0.01 0.01 65 1010.9
20260510010043 71 0 0.0 0.0 0.00 0.01 0.01 61 1010.6
20260510004546 73 0 0.0 0.0 0.00 0.01 0.01 58 1010.5
20260510003057 75 0 0.0 0.0 0.00 0.01 0.01 57 1010.2
20260510001542 76 0 0.0 0.0 0.00 0.01 0.01 51 1010.5
20260510000043 77 0 0.0 0.0 0.00 0.01 0.01 48 1010.6
20260509234547 79 0 0.0 0.0 0.00 0.01 0.01 44 1010.6
20260509233047 81 0 0.0 0.0 0.00 0.01 0.01 40 1010.6
20260509231543 83 0 0.0 1.0 0.00 0.01 0.01 35 1010.7
20260509230051 84 0 0.0 0.0 0.00 0.01 0.01 38 1010.5
20260509224553 85 0 0.0 0.0 0.00 0.01 0.01 35 1010.5
20260509223047 84 0 0.0 0.0 0.00 0.01 0.01 38 1010.7
20260509221541 84 0 0.0 1.0 0.00 0.01 0.01 39 1010.7
20260509220038 87 0 0.0 1.0 0.00 0.01 0.01 33 1010.7
20260509214544 86 233 0.0 1.0 0.00 0.01 0.01 36 1010.8
20260509213045 86 0 0.0 1.0 0.00 0.01 0.01 35 1010.9
20260509211545 86 193 0.0 1.0 0.00 0.01 0.01 34 1010.9
20260509210048 85 0 0.0 1.0 0.00 0.01 0.01 36 1011.1
20260509204540 86 0 0.0 1.0 0.00 0.01 0.01 33 1011.4
20260509203051 86 0 0.0 1.0 0.00 0.01 0.01 36 1011.4
20260509201544 87 0 0.0 2.0 0.00 0.01 0.01 35 1011.5
20260509200045 86 100 0.0 2.0 0.00 0.01 0.01 35 1011.4
20260509194544 84 0 0.0 1.0 0.00 0.01 0.01 35 1011.6
20260509193042 86 65 0.0 1.0 0.00 0.01 0.01 33 1011.7
20260509191539 86 175 0.0 2.0 0.00 0.01 0.01 34 1011.7
20260509190040 85 0 0.0 4.0 0.00 0.01 0.01 41 1011.8
20260509184545 85 192 0.0 1.0 0.00 0.01 0.01 43 1012.0
20260509183047 85 0 0.0 2.0 0.00 0.01 0.01 44 1011.9
20260509181605 85 0 0.0 1.0 0.00 0.01 0.01 41 1012.1
20260509180109 84 148 0.0 1.0 0.00 0.01 0.01 45 1012.2
20260509174543 82 0 0.0 3.0 0.00 0.01 0.01 46 1012.3
20260509173052 82 0 0.0 2.0 0.00 0.01 0.01 45 1012.3
20260509171552 83 0 0.0 2.0 0.00 0.01 0.01 47 1012.3
20260509170050 82 0 0.0 2.0 0.00 0.01 0.01 51 1012.5
20260509164543 81 0 0.0 4.0 0.00 0.01 0.01 53 1012.3
20260509163043 80 130 0.0 3.0 0.00 0.01 0.01 56 1012.3
20260509161559 79 223 0.0 2.0 0.00 0.01 0.01 58 1012.3
20260509160047 78 179 0.0 4.0 0.00 0.01 0.01 62 1012.3
20260509154545 78 143 0.0 3.0 0.00 0.01 0.01 64 1012.2
20260509153051 76 119 0.0 1.0 0.00 0.01 0.01 65 1012.1
20260509151551 74 0 0.0 2.0 0.00 0.01 0.01 67 1012.2
20260509150043 74 205 0.0 1.0 0.00 0.01 0.01 67 1012.2
20260509144549 72 0 0.0 2.0 0.00 0.01 0.01 70 1012.1
20260509143100 70 227 0.0 1.0 0.00 0.01 0.01 71 1012.2
20260509141558 68 187 0.0 2.0 0.00 0.01 0.01 75 1012.2
20260509140045 66 0 0.0 3.0 0.00 0.01 0.01 77 1012.1
20260509134550 65 233 0.0 2.0 0.00 0.01 0.01 79 1011.9
20260509133057 63 0 0.0 1.0 0.00 0.01 0.01 82 1011.7
20260509131543 61 0 0.0 1.0 0.00 0.01 0.01 87 1011.7
20260509130049 58 130 0.0 1.0 0.00 0.01 0.01 90 1011.6
20260509124549 58 0 0.0 1.0 0.00 0.01 0.01 94 1011.5
20260509123043 56 0 0.0 0.0 0.00 0.01 0.01 97 1011.3
20260509121551 55 0 0.0 0.0 0.00 0.01 0.01 97 1011.2
20260509120040 51 0 0.0 0.0 0.00 0.01 0.01 97 1011.0
20260509114537 48 0 0.0 0.0 0.00 0.01 0.01 97 1011.0
20260509113039 48 0 0.0 0.0 0.00 0.01 0.01 96 1010.7
20260509111543 48 0 0.0 0.0 0.00 0.01 0.01 96 1010.8
20260509110047 49 0 0.0 0.0 0.00 0.01 0.01 96 1010.8
20260509104559 49 0 0.0 0.0 0.00 0.01 0.01 97 1010.7
20260509103041 49 0 0.0 0.0 0.00 0.01 0.01 97 1010.8
20260509101544 49 0 0.0 0.0 0.00 0.01 0.01 96 1010.7
20260509100037 49 0 0.0 0.0 0.00 0.01 0.01 95 1010.7